Location: Audrecelles
(50.8240°N, 1.5923°E)
Time: 02:21:32
(UTC+00:00)

Cosmos 44 - Pass Details

Date: 14 October 2025
Orbit: 576 x 774 km, 65.1° (Epoch: 13 November)

Event Time Altitude Azimuth Distance (km) Brightness Sun altitude
Exits shadow 05:21:54 - 320° (NW) 3,044 6.2 -9.2°
Reaches altitude 10° 05:24:12 10° 326° (NW) 2,181 5.5 -8.8°
Maximum altitude 05:29:04 50° 42° (NE) 930 4.3 -8.0°
Drops below altitude 10° 05:34:09 10° 118° (ESE) 2,278 7.2 -7.2°
Sets 05:36:39 0° 123° (ESE) 3,218 8.0 -6.9°
